Wind_Speed
40 41 39 41 38 39 39 40 40 45 47 48 48 46 47 57 59 62 67 64 63 72 75 78 82 85 88 91 95 97 100 103 100 94 91 82 78 80 83 93 102 111 117 113
42 43 40 44 44 43 43 44 46 48 48 47 46 56 56 59 60 64 64 66 73 79 81 82 80 85 90 96 102 104 108 112 110 109 95 86 77 75 83 89 98 105 106 103
46 41 46 46 46 42 48 45 45 48 46 49 49 47 56 60 68 68 66 70 73 78 84 89 86 90 95 102 106 110 115 118 121 119 108 94 87 84 78 77 77 78 81 81
48 46 48 48 52 48 51 52 53 54 54 53 60 52 56 65 65 70 76 79 83 84 92 94 92 95 98 103 110 116 120 124 127 128 112 98 87 79 71 66 64 67 68 65
47 43 48 50 51 55 57 57 55 56 57 55 65 68 61 65 71 76 77 80 88 93 95 89 95 99 104 111 118 121 125 132 133 127 121 102 87 77 67 62 55 61 57 58
48 48 52 52 57 60 60 59 61 62 62 58 62 69 67 76 78 84 84 81 86 89 93 95 100 105 111 120 124 128 130 137 137 129 123 104 85 74 63 63 55 56 52 50
52 52 55 59 60 63 64 61 62 60 65 66 68 72 76 80 84 84 81 90 91 98 99 100 106 111 118 125 129 132 135 140 142 137 118 99 81 71 63 60 53 53 51 45
50 52 59 64 66 67 67 66 69 72 72 68 75 77 83 87 95 89 89 91 97 101 101 105 114 120 125 131 135 136 139 141 144 138 114 91 79 71 65 55 55 52 47 43
62 60 64 69 69 72 71 71 76 78 76 76 77 78 81 90 93 91 93 97 106 107 107 112 120 124 130 134 138 141 143 148 147 135 106 87 80 73 65 55 52 52 42 43
71 65 65 71 74 75 76 76 83 84 84 84 78 83 92 96 95 95 95 101 105 107 112 117 125 129 133 139 143 147 147 154 146 128 104 84 81 72 66 57 49 50 40 42
78 75 71 72 75 77 77 76 80 84 92 98 98 87 98 99 100 99 101 105 109 114 119 125 130 133 139 144 148 150 154 154 143 127 100 86 81 71 66 60 53 49 40 42
83 83 78 80 82 85 82 85 88 92 96 99 106 90 102 104 110 103 108 114 118 121 126 130 134 137 142 147 151 152 157 157 144 127 97 87 79 71 64 60 54 47 40 39
85 84 84 84 81 86 85 87 91 96 100 100 105 102 102 109 107 112 117 118 120 123 127 131 136 141 146 149 151 155 159 154 149 120 94 86 79 71 62 59 52 45 38 39
93 88 90 90 90 94 93 92 96 103 105 108 101 104 116 118 117 118 118 120 124 128 132 136 141 146 149 153 154 158 159 163 146 113 94 84 77 67 56 56 49 40 36 39
96 90 95 91 94 97 94 98 104 108 111 115 108 113 119 120 122 123 125 129 132 134 137 141 144 148 153 155 157 161 163 163 139 107 92 83 77 64 54 51 47 36 35 37
98 98 101 95 101 102 97 101 109 113 113 119 120 117 126 124 125 126 128 130 134 137 141 144 147 151 155 160 161 161 164 154 128 101 91 81 76 62 52 48 45 35 33 37
103 105 109 106 107 106 98 102 113 114 117 125 123 127 123 125 127 131 133 135 136 139 143 147 150 154 158 161 161 162 161 144 120 100 91 80 73 60 52 47 45 35 31 35
107 110 113 115 115 114 109 114 118 119 118 124 126 127 128 128 132 134 137 138 142 144 148 152 155 160 161 163 165 163 164 144 113 99 90 79 69 58 52 44 44 36 29 32
111 116 119 121 121 120 113 124 128 129 119 128 129 132 133 135 137 140 141 142 145 148 152 153 158 163 165 163 167 169 159 135 109 99 91 79 65 54 51 42 40 36 29 29
116 120 122 124 128 130 121 127 130 131 127 131 132 134 137 139 140 143 145 146 148 151 155 158 163 164 165 166 169 162 146 128 108 100 91 76 62 52 49 41 38 36 29 28
122 124 125 130 134 129 127 133 136 137 136 136 137 139 139 141 144 147 147 150 153 156 160 162 165 168 170 165 174 151 144 121 108 99 89 73 60 50 45 41 35 36 30 27
129 127 127 132 135 134 132 137 138 139 141 141 141 143 140 142 147 150 152 156 157 159 161 164 169 169 167 173 156 148 130 116 107 97 83 69 57 48 42 39 34 34 31 29
133 134 136 135 135 134 135 136 141 141 144 144 141 140 141 145 149 154 157 158 160 162 163 167 171 169 169 170 152 141 125 114 104 91 78 67 57 46 38 36 34 32 30 32
133 137 136 138 133 136 138 139 142 141 141 139 141 141 146 152 153 157 160 161 161 163 167 171 175 172 174 156 147 128 118 108 97 83 74 66 56 46 36 33 32 31 29 33
137 139 137 138 136 139 141 137 134 136 138 141 143 148 149 151 155 162 164 162 165 170 172 172 172 175 155 150 133 120 113 99 89 77 70 63 53 46 35 31 31 31 28 34
134 136 138 138 135 135 136 138 141 139 140 145 149 151 154 160 161 165 164 167 170 172 171 173 164 153 147 139 124 119 104 88 79 73 67 59 52 44 35 29 30 30 29 34
Wind_Direction
318 321 318 321 316 314 313 312 304 308 312 313 315 313 317 317 318 317 316 317 320 318 320 319 317 322 323 328 329 331 339 342 338 335 333 323 317 312 300 284 277 275 277 278
310 316 313 313 317 312 309 309 309 308 311 310 312 313 316 317 318 315 319 318 318 318 317 318 322 329 328 333 333 338 342 343 340 339 333 326 312 294 282 280 277 277 276 275
306 313 314 311 314 315 319 315 312 311 312 311 309 315 315 314 316 315 314 318 318 320 317 319 325 329 331 332 334 342 343 342 342 341 336 329 321 309 294 286 281 276 273 271
297 306 312 312 314 311 312 312 312 311 312 313 308 311 309 309 312 311 313 312 313 317 317 321 329 329 332 334 337 341 343 341 341 340 336 331 319 310 301 293 284 277 275 268
296 302 309 312 314 312 312 308 308 308 309 309 309 311 312 310 311 308 310 314 313 315 315 326 332 334 335 338 341 342 341 341 342 340 337 330 320 312 305 294 284 280 275 266
292 300 304 311 310 308 309 308 307 308 310 313 310 311 310 311 307 309 311 316 320 321 320 329 330 334 338 340 340 342 343 342 341 341 338 332 320 311 306 300 291 285 276 264
292 299 302 309 306 308 308 308 305 308 308 314 310 307 308 311 309 309 314 315 319 319 322 328 330 336 337 337 337 340 343 341 343 340 337 332 322 317 310 302 292 283 275 264
291 295 301 307 307 305 306 308 309 307 309 311 313 311 313 312 311 311 313 315 317 316 320 329 332 336 337 336 336 340 341 342 342 341 337 332 325 322 312 301 291 281 276 266
295 297 299 303 304 304 304 309 311 311 309 309 311 313 313 308 308 313 314 318 317 319 326 333 334 337 336 335 337 337 341 342 342 340 337 334 327 321 312 303 290 285 275 267
295 297 300 300 303 303 305 308 309 311 311 311 312 315 317 309 311 313 319 319 321 325 330 332 332 334 336 335 337 339 339 341 341 340 337 334 327 320 313 304 294 289 277 266
295 296 297 301 301 301 304 309 309 313 315 315 314 318 311 313 312 316 320 321 323 327 330 330 329 331 332 335 336 337 341 341 342 341 336 334 328 320 315 307 301 292 283 266
295 297 298 300 299 297 302 307 309 313 312 314 311 320 311 312 312 318 319 321 324 327 328 329 327 330 332 334 335 339 340 342 341 339 334 332 328 322 315 306 302 294 283 263
293 299 299 297 301 301 304 308 311 312 312 315 315 319 320 313 318 320 321 322 325 327 326 328 329 330 331 331 336 336 340 342 341 337 332 332 329 322 314 305 301 292 279 259
293 298 298 300 303 304 307 311 313 311 314 312 321 318 318 315 318 317 319 323 325 326 327 328 328 330 330 331 333 336 337 340 339 335 332 332 328 321 312 302 299 289 273 256
293 295 295 299 301 303 309 313 311 311 311 310 315 318 313 315 317 320 320 321 322 324 325 325 327 327 330 331 332 335 336 337 337 333 332 331 327 320 311 303 299 288 270 254
291 294 295 297 298 300 309 310 308 308 310 310 312 312 310 314 316 319 323 323 323 321 323 325 326 328 329 330 332 335 336 337 336 331 331 331 326 320 313 303 298 287 264 252
291 293 295 295 296 300 307 305 306 307 308 309 309 310 309 313 317 319 321 322 322 323 323 324 326 327 329 329 332 333 335 336 335 332 330 331 325 319 313 302 294 284 260 248
291 292 293 295 298 301 304 306 303 305 306 307 307 309 312 315 315 318 317 320 321 322 322 323 323 325 326 328 330 331 333 333 332 331 329 330 324 318 310 300 292 282 258 246
290 291 292 294 296 299 305 303 303 304 306 305 309 310 312 314 314 315 317 317 319 321 321 323 325 324 325 326 329 330 330 331 331 330 329 329 322 317 307 297 287 280 257 248
289 290 290 292 295 298 300 302 301 302 307 307 308 311 311 312 313 314 315 316 318 319 320 323 323 324 324 326 326 329 330 330 330 329 327 327 320 316 307 298 287 279 264 257
288 289 290 292 293 297 299 299 300 301 305 307 307 308 309 311 313 313 313 315 315 318 319 320 320 322 322 325 326 327 329 328 329 328 326 326 319 315 306 297 287 278 270 264
285 287 290 291 294 297 298 300 302 303 304 306 306 307 310 309 311 312 312 314 315 316 318 318 318 319 322 322 325 325 327 327 328 327 324 322 317 313 303 294 286 276 269 262
285 287 288 292 296 296 298 299 301 302 302 304 306 307 307 307 309 310 310 312 314 313 314 315 317 318 319 322 322 325 326 326 326 324 321 319 315 311 301 292 285 274 264 257
286 287 289 291 294 296 297 299 299 299 301 302 303 303 303 306 307 308 309 309 311 310 312 313 315 316 317 320 322 323 325 325 323 322 319 316 313 308 299 290 283 272 259 250
286 289 290 292 294 294 296 297 297 297 297 299 300 300 302 303 303 305 306 306 308 309 310 311 313 313 317 319 321 323 324 323 321 320 317 314 310 305 298 289 281 271 255 245
287 289 290 291 292 293 293 293 294 294 295 296 297 298 298 301 301 303 304 305 306 308 309 310 313 315 317 319 321 323 323 323 321 319 315 313 308 302 297 287 281 268 255 243
Height
10765 10761 10758 10754 10750 10748 10743 10738 10735 10726 10724 10722 10718 10709 10706 10698 10691 10683 10677 10669 10660 10653 10643 10637 10627 10616 10606 10596 10586 10571 10549 10526 10515 10505 10487 10471 10456 10432 10412 10391 10380 10375 10373 10373
10758 10755 10749 10745 10741 10737 10732 10730 10724 10719 10717 10711 10709 10702 10694 10687 10682 10673 10665 10657 10648 10639 10629 10621 10611 10600 10588 10575 10559 10539 10513 10496 10483 10466 10449 10430 10418 10397 10376 10363 10352 10344 10337 10335
10749 10747 10741 10735 10731 10727 10719 10718 10712 10710 10706 10699 10697 10699 10685 10672 10668 10660 10654 10646 10636 10626 10613 10603 10591 10578 10563 10548 10532 10507 10485 10468 10450 10428 10414 10395 10374 10354 10345 10330 10320 10312 10304 10303
10742 10738 10733 10727 10720 10716 10711 10703 10699 10696 10694 10692 10678 10692 10680 10666 10658 10647 10642 10632 10622 10609 10594 10583 10572 10556 10542 10525 10501 10480 10459 10439 10420 10397 10376 10358 10341 10329 10315 10300 10289 10279 10274 10275
10732 10730 10724 10718 10710 10702 10699 10693 10689 10684 10681 10680 10664 10662 10665 10652 10642 10631 10625 10615 10602 10588 10573 10562 10548 10533 10517 10495 10474 10454 10433 10409 10388 10366 10343 10330 10309 10292 10282 10272 10264 10254 10250 10251
10722 10719 10713 10708 10700 10691 10685 10681 10675 10671 10665 10669 10658 10647 10651 10637 10622 10615 10607 10596 10583 10566 10552 10540 10525 10508 10486 10464 10445 10426 10407 10383 10362 10337 10318 10294 10276 10266 10256 10243 10236 10231 10226 10228
10710 10708 10702 10696 10687 10679 10670 10665 10660 10662 10653 10650 10645 10640 10630 10619 10603 10594 10587 10575 10560 10543 10530 10519 10499 10479 10457 10439 10421 10406 10382 10361 10335 10317 10291 10268 10249 10238 10230 10220 10214 10208 10203 10207
10700 10699 10689 10684 10674 10664 10658 10651 10639 10636 10638 10638 10624 10618 10610 10595 10582 10575 10567 10555 10538 10519 10507 10490 10466 10450 10431 10415 10396 10375 10360 10339 10317 10292 10267 10244 10224 10214 10207 10201 10192 10187 10184 10185
10680 10685 10680 10670 10660 10648 10644 10637 10626 10618 10620 10618 10614 10605 10595 10574 10562 10559 10545 10531 10510 10492 10476 10454 10436 10421 10408 10390 10368 10352 10335 10316 10293 10269 10246 10227 10209 10194 10185 10178 10171 10167 10167 10164
10661 10665 10664 10654 10644 10633 10625 10622 10609 10600 10595 10592 10597 10587 10571 10553 10544 10535 10525 10507 10486 10467 10452 10435 10417 10402 10386 10367 10346 10326 10310 10289 10271 10246 10223 10210 10194 10178 10163 10157 10151 10148 10148 10146
10640 10644 10648 10639 10630 10619 10611 10606 10595 10588 10576 10562 10556 10579 10542 10534 10519 10515 10503 10485 10464 10444 10426 10410 10393 10377 10363 10342 10324 10305 10285 10271 10249 10224 10203 10190 10175 10159 10145 10135 10131 10130 10129 10127
10621 10622 10627 10623 10612 10601 10601 10592 10579 10570 10560 10550 10528 10562 10521 10510 10492 10491 10476 10458 10437 10417 10400 10386 10372 10357 10339 10320 10303 10279 10268 10246 10224 10204 10185 10169 10154 10142 10129 10117 10114 10113 10111 10109
10607 10606 10599 10601 10594 10579 10580 10576 10564 10549 10538 10539 10517 10510 10501 10477 10472 10461 10448 10431 10414 10399 10384 10369 10350 10333 10316 10303 10283 10264 10243 10226 10206 10187 10168 10153 10136 10124 10114 10101 10099 10096 10093 10092
10580 10587 10573 10570 10565 10552 10552 10550 10540 10520 10512 10502 10509 10492 10465 10449 10450 10438 10426 10410 10393 10377 10361 10346 10329 10312 10298 10280 10261 10245 10226 10208 10191 10170 10152 10137 10123 10112 10101 10089 10084 10083 10078 10076
10561 10565 10551 10556 10543 10532 10538 10535 10517 10505 10492 10474 10491 10471 10448 10438 10427 10411 10396 10381 10367 10354 10340 10325 10310 10295 10277 10260 10244 10223 10204 10190 10173 10153 10137 10122 10107 10096 10084 10075 10070 10070 10064 10063
10543 10538 10527 10536 10522 10517 10528 10517 10499 10486 10480 10460 10455 10460 10422 10422 10403 10389 10377 10362 10348 10336 10320 10304 10290 10272 10257 10239 10222 10204 10187 10171 10156 10137 10121 10106 10089 10078 10068 10060 10055 10055 10052 10048
10519 10512 10503 10503 10495 10496 10517 10499 10483 10473 10461 10439 10437 10425 10417 10401 10385 10369 10353 10341 10327 10316 10300 10284 10269 10252 10236 10218 10202 10183 10171 10155 10138 10120 10104 10092 10075 10061 10053 10045 10041 10042 10040 10036
10500 10487 10477 10470 10467 10469 10481 10473 10457 10451 10453 10425 10412 10402 10388 10377 10362 10351 10337 10322 10307 10294 10278 10260 10246 10228 10215 10197 10181 10166 10153 10137 10121 10103 10088 10074 10060 10048 10037 10032 10026 10028 10028 10025
10482 10467 10453 10443 10441 10444 10473 10438 10420 10418 10438 10402 10388 10375 10364 10350 10340 10326 10314 10299 10286 10271 10256 10241 10222 10210 10193 10180 10163 10148 10134 10117 10102 10085 10070 10059 10046 10035 10024 10020 10014 10013 10015 10014
10462 10450 10438 10427 10417 10417 10434 10413 10400 10390 10399 10384 10367 10353 10341 10330 10318 10301 10288 10276 10262 10250 10234 10215 10201 10186 10174 10159 10141 10128 10112 10097 10082 10067 10053 10042 10031 10021 10010 10005 10000 9999 10000 10001
10435 10427 10424 10408 10394 10411 10408 10387 10374 10366 10356 10349 10342 10330 10320 10307 10293 10279 10266 10252 10238 10224 10209 10193 10179 10167 10151 10140 10127 10107 10093 10077 10064 10047 10033 10023 10014 10006 9998 9991 9986 9985 9986 9987
10407 10401 10399 10387 10379 10380 10375 10360 10345 10335 10326 10319 10311 10301 10291 10277 10267 10254 10240 10228 10215 10201 10187 10174 10161 10146 10134 10120 10105 10088 10075 10061 10044 10029 10016 10008 10000 9992 9984 9978 9974 9972 9973 9976
10378 10374 10367 10368 10363 10350 10345 10331 10319 10315 10300 10293 10283 10276 10264 10253 10242 10232 10220 10204 10193 10180 10167 10155 10140 10126 10113 10100 10088 10072 10053 10040 10027 10012 10001 9992 9984 9979 9971 9965 9961 9961 9961 9965
10360 10349 10347 10338 10347 10325 10313 10305 10294 10287 10279 10270 10260 10252 10241 10231 10219 10206 10195 10183 10172 10159 10147 10132 10119 10105 10092 10078 10064 10052 10041 10025 10010 9998 9986 9976 9968 9962 9959 9952 9949 9949 9950 9952
10332 10323 10320 10319 10315 10298 10292 10281 10269 10260 10253 10243 10235 10225 10220 10210 10199 10188 10174 10161 10150 10135 10123 10111 10096 10084 10070 10059 10047 10034 10022 10009 9991 9980 9971 9960 9954 9947 9943 9939 9936 9937 9939 9941
10316 10306 10293 10288 10288 10270 10264 10255 10244 10237 10230 10219 10208 10201 10196 10189 10176 10165 10152 10137 10127 10113 10101 10088 10076 10063 10049 10038 10025 10011 10002 9991 9977 9963 9953 9944 9937 9932 9928 9926 9923 9925 9925 9929